FW3266 Weather Reports


Display with metric or nautical units.
time (UTC)temp
F
wind
direction
speed
MPH
gust
MPH
rain 1hr
in
rain 24hr
in
rain mn
in
humidity
%
barometer
mb
20260510075337 54 338 2.0 3.0 0.00 0.51 0.00 92 1012.9
20260510074838 55 339 1.0 3.0 0.00 0.51 0.00 92 1012.9
20260510074331 55 339 1.0 3.0 0.00 0.51 0.00 92 1012.9
20260510073827 54 342 1.0 3.0 0.00 0.51 0.00 92 1012.9
20260510073325 55 342 2.0 4.0 0.00 0.51 0.00 92 1012.7
20260510072828 54 342 1.0 4.0 0.00 0.51 0.00 92 1012.7
20260510072322 55 349 2.0 4.0 0.00 0.51 0.00 92 1012.8
20260510071814 54 355 2.0 3.0 0.00 0.51 0.00 92 1012.9
20260510071317 54 356 2.0 3.0 0.00 0.51 0.00 92 1012.8
20260510070803 54 359 2.0 3.0 0.00 0.51 0.00 92 1012.6
20260510070301 54 58 2.0 3.0 0.00 0.51 0.00 92 1012.6
20260510065757 54 250 1.0 3.0 0.00 0.51 0.00 92 1012.6
20260510065540 54 246 1.0 2.0 0.00 0.51 0.00 92 1012.6
20260510064746 54 250 1.0 2.0 0.00 0.51 0.00 92 1012.6
20260510064247 54 248 1.0 2.0 0.00 0.51 0.00 92 1012.6
20260510063740 54 248 1.0 5.0 0.00 0.51 0.00 92 1012.6
20260510063235 54 247 0.0 5.0 0.00 0.51 0.00 92 1012.6
20260510062728 54 247 2.0 4.0 0.00 0.51 0.00 92 1012.7
20260510062222 54 311 2.0 3.0 0.00 0.51 0.00 92 1012.6
20260510061718 54 243 1.0 3.0 0.00 0.51 0.00 92 1012.6
20260510061204 54 243 1.0 3.0 0.00 0.51 0.00 92 1012.7
20260510060700 54 243 2.0 3.0 0.00 0.51 0.00 92 1012.7
20260510060410 54 248 1.0 3.0 0.00 0.51 0.00 92 1012.7
20260510055908 53 248 1.0 3.0 0.00 0.51 0.00 92 1012.6
20260510055130 53 248 0.0 2.0 0.00 0.51 0.00 92 1012.6
20260510054854 53 248 1.0 2.0 0.00 0.51 0.00 92 1012.6
20260510054124 53 212 0.0 2.0 0.00 0.51 0.00 92 1012.6
20260510053620 53 233 0.0 1.0 0.00 0.51 0.00 92 1012.7
20260510053117 53 233 0.0 3.0 0.00 0.51 0.00 92 1012.7
20260510052844 53 233 1.0 3.0 0.00 0.51 0.00 92 1012.8
20260510052112 53 191 0.0 1.0 0.00 0.51 0.00 92 1012.7
20260510051610 53 193 0.0 1.0 0.00 0.51 0.00 92 1012.8
20260510051342 53 193 0.0 1.0 0.00 0.51 0.00 92 1012.7
20260510050604 53 193 0.0 3.0 0.00 0.51 0.00 92 1012.6
20260510050051 52 193 0.0 3.0 0.00 0.51 0.00 92 1012.6
20260510045545 52 192 1.0 3.0 0.00 0.51 0.00 92 1012.5
20260510045042 52 193 0.0 4.0 0.00 0.51 0.00 92 1012.6
20260510044541 52 177 2.0 5.0 0.00 0.51 0.00 91 1012.6
20260510044034 52 172 2.0 5.0 0.00 0.51 0.00 91 1012.6
20260510043535 51 162 2.0 4.0 0.00 0.51 0.00 91 1012.8
20260510043027 51 203 1.0 2.0 0.00 0.51 0.00 91 1012.9
20260510042524 51 203 1.0 3.0 0.00 0.51 0.00 91 1012.9
20260510042314 51 204 1.0 3.0 0.00 0.51 0.00 91 1013.1
20260510042310 51 204 0.0 3.0 0.00 0.51 0.00 91 1013.0
20260510041237 51 204 0.0 4.0 0.00 0.51 0.00 91 1013.1
20260510040501 51 205 1.0 4.0 0.00 0.51 0.00 91 1013.1
20260510035954 51 217 2.0 6.0 0.00 0.51 0.51 91 1013.1
20260510035451 51 216 2.0 6.0 0.00 0.51 0.51 91 1013.1
20260510034949 51 203 2.0 6.0 0.00 0.51 0.51 91 1013.1
20260510034444 51 188 2.0 5.0 0.01 0.51 0.51 91 1013.0
20260510033943 51 193 2.0 5.0 0.01 0.51 0.51 91 1013.0
20260510033440 51 192 1.0 5.0 0.01 0.51 0.51 91 1012.9
20260510032933 51 202 2.0 5.0 0.01 0.51 0.51 91 1012.9
20260510032707 52 212 1.0 4.0 0.01 0.51 0.51 90 1013.1
20260510031927 52 195 1.0 4.0 0.01 0.51 0.51 91 1013.1
20260510031656 52 219 0.0 3.0 0.01 0.51 0.51 91 1013.2
20260510030916 52 229 1.0 3.0 0.01 0.51 0.51 91 1013.4
20260510030410 52 232 1.0 3.0 0.01 0.51 0.51 91 1013.5
20260510025907 52 232 2.0 3.0 0.01 0.51 0.51 90 1013.6
20260510025406 52 207 1.0 4.0 0.01 0.51 0.51 91 1013.8
20260510024859 53 200 2.0 4.0 0.02 0.51 0.51 91 1014.1
20260510024401 53 206 2.0 4.0 0.01 0.50 0.50 91 1014.1
20260510023857 53 219 2.0 5.0 0.01 0.50 0.50 91 1014.2
20260510023623 53 174 2.0 7.0 0.01 0.50 0.50 91 1014.3
20260510023122 53 213 4.0 7.0 0.01 0.50 0.50 91 1014.3
20260510022344 53 186 3.0 9.0 0.01 0.50 0.50 91 1014.3
20260510021839 53 193 3.0 9.0 0.01 0.50 0.50 91 1014.2
20260510021333 53 197 3.0 7.0 0.01 0.50 0.50 91 1014.2
20260510020828 53 188 4.0 7.0 0.01 0.50 0.50 91 1014.3
20260510020322 53 174 2.0 7.0 0.01 0.50 0.50 90 1014.5
20260510015822 53 202 2.0 8.0 0.01 0.50 0.50 90 1014.5
20260510015318 53 197 2.0 8.0 0.00 0.49 0.50 90 1014.5
20260510015107 53 181 2.0 7.0 0.00 0.49 0.49 90 1014.6
20260510014313 53 205 3.0 7.0 0.00 0.49 0.49 91 1014.7
20260510014038 53 211 3.0 7.0 0.00 0.49 0.49 91 1014.8
20260510013303 53 181 3.0 6.0 0.00 0.49 0.49 91 1014.8
20260510012757 53 210 3.0 6.0 0.00 0.49 0.49 91 1014.8
20260510012242 53 200 2.0 6.0 0.00 0.49 0.49 91 1014.8
20260510011739 53 200 3.0 7.0 0.00 0.49 0.49 91 1014.9
20260510011238 53 197 3.0 8.0 0.00 0.49 0.49 91 1015.0
20260510010735 54 197 3.0 8.0 0.00 0.49 0.49 91 1015.0
20260510010226 54 192 2.0 7.0 0.00 0.49 0.49 91 1015.0
20260510005722 54 201 3.0 8.0 0.00 0.49 0.49 91 1014.9
20260510005215 54 181 2.0 8.0 0.00 0.49 0.49 91 1014.8
20260510004710 54 248 3.0 8.0 0.00 0.49 0.49 91 1014.7
20260510004205 54 240 3.0 5.0 0.01 0.49 0.49 91 1014.8
20260510003702 54 217 2.0 6.0 0.01 0.49 0.49 91 1014.8
20260510003201 54 230 3.0 6.0 0.01 0.49 0.49 91 1014.7
20260510002654 54 191 2.0 6.0 0.01 0.49 0.49 91 1014.5
20260510002150 54 245 2.0 5.0 0.01 0.49 0.49 91 1014.6
20260510001927 54 246 3.0 4.0 0.02 0.49 0.49 91 1014.5
20260510001146 54 200 2.0 6.0 0.04 0.49 0.49 91 1014.5
20260510000648 55 233 2.0 4.0 0.09 0.49 0.49 91 1014.7
20260510000642 55 210 3.0 6.0 0.05 0.49 0.49 91 1014.6
20260509235626 55 236 2.0 4.0 0.12 0.49 0.49 91 1014.5
20260509235128 55 237 2.0 4.0 0.14 0.49 0.49 91 1014.5
20260509234624 55 243 2.0 5.0 0.15 0.49 0.49 91 1014.5
20260509234342 55 242 2.0 5.0 0.16 0.48 0.48 91 1014.4
20260509233830 55 250 2.0 5.0 0.18 0.48 0.48 91 1014.5
20260509233054 55 243 2.0 6.0 0.19 0.48 0.48 91 1014.4
20260509232545 55 244 2.0 6.0 0.20 0.48 0.48 91 1014.5
20260509232313 55 213 3.0 5.0 0.23 0.48 0.48 90 1014.3
20260509231534 55 231 2.0 7.0 0.24 0.47 0.47 90 1014.4
20260509231031 55 246 3.0 7.0 0.23 0.45 0.45 90 1014.4
20260509230522 55 233 3.0 7.0 0.23 0.43 0.43 90 1014.4
20260509230019 55 214 3.0 9.0 0.20 0.39 0.40 90 1014.4
20260509225511 55 263 3.0 9.0 0.20 0.36 0.37 90 1014.3
20260509225245 55 250 4.0 8.0 0.19 0.35 0.35 90 1014.3
20260509224508 55 233 4.0 10.0 0.18 0.34 0.34 90 1014.3
20260509224007 55 192 4.0 10.0 0.16 0.32 0.32 90 1014.2
20260509223508 55 169 5.0 10.0 0.14 0.30 0.30 90 1014.1
20260509223002 56 202 4.0 10.0 0.13 0.29 0.29 89 1014.1
20260509222455 56 245 3.0 10.0 0.11 0.27 0.28 89 1014.1
20260509221950 56 207 3.0 10.0 0.10 0.25 0.26 89 1014.0
20260509221445 56 191 4.0 10.0 0.12 0.23 0.23 89 1014.0
20260509220939 56 186 3.0 8.0 0.14 0.22 0.22 89 1013.9
20260509220439 56 223 4.0 9.0 0.16 0.20 0.21 89 1014.0
20260509220204 56 248 3.0 9.0 0.15 0.18 0.18 89 1014.1
20260509215432 56 226 4.0 8.0 0.14 0.16 0.16 88 1014.1
20260509214928 56 234 3.0 7.0 0.15 0.16 0.16 88 1013.9
20260509214426 56 246 4.0 5.0 0.15 0.16 0.16 88 1013.9
20260509213921 56 154 2.0 5.0 0.15 0.16 0.16 88 1013.8
20260509213415 56 214 2.0 5.0 0.15 0.16 0.16 87 1013.8
20260509212911 56 247 2.0 6.0 0.15 0.16 0.16 87 1013.6
20260509212404 56 246 3.0 13.0 0.15 0.16 0.16 87 1013.5
20260509211900 56 250 6.0 13.0 0.14 0.15 0.15 86 1013.6
20260509211354 56 243 4.0 8.0 0.10 0.11 0.11 84 1013.7
20260509210851 56 250 3.0 7.0 0.05 0.06 0.06 83 1013.7
20260509210353 57 257 3.0 9.0 0.03 0.04 0.04 81 1013.5
20260509205841 58 249 3.0 11.0 0.02 0.03 0.03 79 1013.4
20260509205338 59 254 5.0 11.0 0.01 0.02 0.02 77 1013.5
20260509204830 60 288 4.0 17.0 0.00 0.01 0.01 76 1013.7
20260509204325 62 246 6.0 17.0 0.00 0.01 0.01 73 1013.5
20260509203821 62 245 4.0 14.0 0.00 0.01 0.01 73 1013.5
20260509203319 62 250 4.0 14.0 0.00 0.01 0.01 71 1013.3
20260509202816 63 220 4.0 9.0 0.00 0.01 0.01 71 1013.2
20260509202315 63 189 4.0 9.0 0.00 0.01 0.01 71 1013.2
20260509201810 63 190 3.0 8.0 0.00 0.01 0.01 70 1013.2
20260509201311 63 229 5.0 15.0 0.00 0.01 0.01 70 1013.2
20260509200803 63 251 6.0 15.0 0.00 0.01 0.01 69 1013.2
20260509200259 63 207 4.0 12.0 0.00 0.01 0.01 68 1013.3
20260509195752 63 208 4.0 11.0 0.00 0.01 0.01 68 1013.2
20260509195249 63 177 4.0 11.0 0.00 0.01 0.01 67 1013.2
20260509195022 63 239 5.0 15.0 0.00 0.01 0.01 68 1013.2
20260509194242 63 256 4.0 15.0 0.00 0.01 0.01 68 1013.3
20260509194010 63 181 7.0 13.0 0.00 0.01 0.01 69 1013.2
20260509193230 63 190 4.0 9.0 0.00 0.01 0.01 69 1013.3
20260509192727 63 223 4.0 7.0 0.00 0.01 0.01 70 1013.2
20260509192219 63 245 4.0 10.0 0.00 0.01 0.01 69 1013.1
20260509191747 64 226 7.0 16.0 0.00 0.01 0.01 69 1013.4
20260509191738 63 224 5.0 17.0 0.00 0.01 0.01 68 1013.3
20260509190708 64 179 5.0 12.0 0.00 0.01 0.01 69 1013.3
20260509190205 64 243 5.0 12.0 0.00 0.01 0.01 69 1013.2
20260509185657 64 209 4.0 12.0 0.00 0.01 0.01 69 1013.4
20260509185200 63 222 5.0 10.0 0.00 0.01 0.01 70 1013.5
20260509184654 63 263 5.0 10.0 0.00 0.01 0.01 71 1013.6
20260509184154 62 231 4.0 8.0 0.00 0.01 0.01 71 1013.5
20260509183649 62 216 5.0 10.0 0.00 0.01 0.01 72 1013.5
20260509183141 62 200 4.0 10.0 0.00 0.01 0.01 73 1013.5
20260509182637 61 178 2.0 5.0 0.00 0.01 0.01 74 1013.5
20260509182130 61 210 2.0 6.0 0.00 0.01 0.01 75 1013.6
20260509181632 61 203 4.0 6.0 0.00 0.01 0.01 75 1013.6
20260509181127 60 180 2.0 5.0 0.00 0.01 0.01 75 1013.4
20260509180612 60 165 1.0 6.0 0.00 0.01 0.01 77 1013.5
20260509180347 60 162 2.0 11.0 0.00 0.01 0.01 76 1013.8
20260509175608 60 192 3.0 11.0 0.00 0.01 0.01 75 1014.1
20260509175346 60 176 4.0 10.0 0.00 0.01 0.01 75 1014.1
20260509174842 60 180 2.0 10.0 0.00 0.01 0.01 76 1014.3
20260509174057 60 212 3.0 9.0 0.00 0.01 0.01 73 1014.3
20260509173553 60 201 5.0 10.0 0.00 0.01 0.01 73 1014.3
20260509173047 60 254 5.0 10.0 0.00 0.01 0.01 73 1014.5
20260509172548 59 205 3.0 6.0 0.00 0.01 0.01 75 1014.4
20260509172043 59 238 2.0 7.0 0.00 0.01 0.01 76 1014.3
20260509171537 58 168 3.0 7.0 0.00 0.01 0.01 77 1014.3
20260509171031 56 230 2.0 7.0 0.00 0.01 0.01 79 1014.2
20260509170530 56 188 3.0 7.0 0.00 0.01 0.01 79 1014.3
20260509170257 56 171 3.0 8.0 0.00 0.01 0.01 79 1014.4
20260509165521 55 189 3.0 8.0 0.00 0.01 0.01 79 1014.3
20260509165013 55 111 4.0 12.0 0.00 0.01 0.01 79 1014.3
20260509164509 56 209 4.0 12.0 0.00 0.01 0.01 79 1014.3
20260509164004 56 242 2.0 7.0 0.00 0.01 0.01 79 1014.3
20260509163500 56 104 2.0 7.0 0.00 0.01 0.01 79 1014.3
20260509163231 56 160 2.0 5.0 0.00 0.01 0.01 79 1014.4
20260509162454 56 161 2.0 6.0 0.00 0.01 0.01 79 1014.5
20260509162220 56 130 2.0 8.0 0.00 0.01 0.01 79 1014.6
20260509161447 56 211 3.0 8.0 0.00 0.01 0.01 80 1014.7
20260509160943 55 176 2.0 6.0 0.00 0.01 0.01 81 1014.8
20260509160442 55 155 2.0 7.0 0.00 0.01 0.01 81 1014.7
20260509155936 55 186 2.0 7.0 0.00 0.01 0.01 82 1014.8
20260509155433 54 162 4.0 9.0 0.00 0.01 0.01 82 1015.0
20260509155201 54 206 4.0 9.0 0.00 0.01 0.01 82 1015.1
20260509154421 54 165 3.0 8.0 0.00 0.01 0.01 83 1015.0
20260509153923 54 110 2.0 8.0 0.00 0.01 0.01 83 1015.0
20260509153415 54 212 5.0 8.0 0.00 0.01 0.01 84 1015.1
20260509152910 53 206 2.0 6.0 0.00 0.01 0.01 85 1015.3
20260509152638 53 214 4.0 7.0 0.00 0.01 0.01 85 1015.3
20260509151859 53 187 4.0 7.0 0.00 0.01 0.01 85 1015.1
20260509151354 53 183 4.0 6.0 0.00 0.01 0.01 85 1015.1
20260509150849 53 164 2.0 5.0 0.00 0.01 0.01 84 1015.0
20260509150349 53 185 3.0 7.0 0.00 0.01 0.01 84 1015.1
20260509145841 53 120 3.0 7.0 0.00 0.01 0.01 84 1015.0
20260509145338 53 176 2.0 7.0 0.00 0.01 0.01 84 1015.5
20260509145103 53 162 2.0 6.0 0.00 0.01 0.01 84 1015.3
20260509144330 53 131 2.0 5.0 0.00 0.01 0.01 84 1015.4
20260509143828 53 160 1.0 6.0 0.00 0.01 0.01 84 1015.5
20260509143600 53 131 3.0 6.0 0.00 0.01 0.01 84 1015.7
20260509142821 53 191 2.0 5.0 0.00 0.01 0.01 85 1015.6
20260509142322 52 185 1.0 5.0 0.00 0.01 0.01 85 1015.6
20260509141816 52 142 1.0 5.0 0.00 0.01 0.01 85 1015.6
20260509141309 52 184 2.0 5.0 0.00 0.01 0.01 85 1015.8
20260509140812 52 162 1.0 6.0 0.00 0.01 0.01 85 1016.0
20260509140305 52 179 0.0 6.0 0.00 0.01 0.01 84 1016.1
20260509140035 52 185 3.0 6.0 0.00 0.01 0.01 85 1016.1
20260509135255 52 183 1.0 4.0 0.00 0.01 0.01 85 1016.2
20260509134742 52 210 2.0 5.0 0.00 0.01 0.01 85 1016.2
20260509134258 51 195 1.0 3.0 0.00 0.01 0.01 87 1016.2
20260509134252 52 184 3.0 5.0 0.00 0.01 0.01 86 1016.2
20260509133224 51 203 1.0 3.0 0.00 0.01 0.01 87 1016.1
20260509132719 50 204 1.0 5.0 0.01 0.01 0.01 87 1016.2
20260509132214 50 204 3.0 6.0 0.01 0.01 0.01 87 1016.1
20260509131703 49 206 2.0 6.0 0.01 0.01 0.01 87 1016.1
20260509131154 49 207 2.0 5.0 0.01 0.01 0.01 88 1016.1
20260509130650 48 207 2.0 4.0 0.01 0.01 0.01 88 1016.2
20260509130153 47 220 1.0 3.0 0.01 0.01 0.01 87 1016.1
20260509125646 47 255 1.0 2.0 0.01 0.01 0.01 87 1016.1
20260509125138 47 255 0.0 1.0 0.01 0.01 0.01 87 1016.0
20260509124634 47 255 0.0 1.0 0.01 0.01 0.01 87 1016.0
20260509124121 47 255 0.0 1.0 0.01 0.01 0.01 87 1016.1
20260509123615 47 255 0.0 1.0 0.01 0.01 0.01 87 1016.2
20260509123114 46 255 0.0 1.0 0.01 0.01 0.01 87 1016.3
20260509122609 46 255 0.0 1.0 0.00 0.00 0.00 87 1016.3
20260509122105 46 255 0.0 1.0 0.00 0.00 0.00 86 1016.4
20260509121600 46 255 0.0 0.0 0.00 0.00 0.00 86 1016.6
20260509121057 46 255 0.0 1.0 0.00 0.00 0.00 86 1016.5
20260509120550 46 255 0.0 1.0 0.00 0.00 0.00 86 1016.8
20260509120043 46 255 0.0 1.0 0.00 0.00 0.00 86 1016.6
20260509115539 45 255 0.0 1.0 0.00 0.00 0.00 85 1016.7
20260509115033 45 255 1.0 3.0 0.00 0.00 0.00 85 1017.1
20260509114525 45 255 2.0 3.0 0.00 0.00 0.00 85 1017.0
20260509114020 45 255 0.0 2.0 0.00 0.00 0.00 85 1017.0
20260509113744 44 255 0.0 2.0 0.00 0.00 0.00 85 1017.0
20260509113009 44 255 1.0 2.0 0.00 0.00 0.00 85 1017.0
20260509112503 44 255 0.0 3.0 0.00 0.00 0.00 85 1017.1
20260509111959 44 255 1.0 4.0 0.00 0.00 0.00 85 1017.1
20260509111452 44 255 1.0 4.0 0.00 0.00 0.00 85 1017.0
20260509110945 44 314 1.0 3.0 0.00 0.00 0.00 85 1017.0
20260509110454 44 314 2.0 2.0 0.00 0.00 0.00 85 1017.0
20260509105934 43 314 0.0 1.0 0.00 0.00 0.00 85 1016.7
20260509105432 43 314 0.0 0.0 0.00 0.00 0.00 85 1016.5
20260509105428 43 314 0.0 0.0 0.00 0.00 0.00 85 1016.5
20260509104419 43 314 0.0 0.0 0.00 0.00 0.00 85 1016.5
20260509103919 43 314 0.0 2.0 0.00 0.00 0.00 85 1016.3
20260509103407 42 314 1.0 3.0 0.00 0.00 0.00 85 1016.1
20260509102906 42 314 1.0 3.0 0.00 0.00 0.00 85 1016.0
20260509102401 42 314 0.0 2.0 0.00 0.00 0.00 84 1016.0
20260509101855 42 314 0.0 2.0 0.00 0.00 0.00 84 1015.9
20260509101353 41 314 0.0 0.0 0.00 0.00 0.00 84 1015.9
20260509100851 41 314 0.0 0.0 0.00 0.00 0.00 84 1015.9
20260509100345 41 314 0.0 0.0 0.00 0.00 0.00 84 1015.8
20260509095845 41 314 0.0 0.0 0.00 0.00 0.00 84 1015.8
20260509095341 40 314 0.0 0.0 0.00 0.00 0.00 83 1015.7
20260509094829 40 314 0.0 0.0 0.00 0.00 0.00 83 1015.4
20260509094330 40 314 0.0 0.0 0.00 0.00 0.00 83 1015.4
20260509093824 40 314 0.0 0.0 0.00 0.00 0.00 83 1015.5
20260509093547 40 314 0.0 0.0 0.00 0.00 0.00 83 1015.5
20260509092820 40 314 0.0 0.0 0.00 0.00 0.00 83 1015.5
20260509092259 39 314 0.0 0.0 0.00 0.00 0.00 83 1015.5
20260509091753 39 314 0.0 0.0 0.00 0.00 0.00 83 1015.5
20260509091744 39 314 0.0 0.0 0.00 0.00 0.00 82 1015.5
20260509090735 39 314 0.0 0.0 0.00 0.00 0.00 82 1015.5
20260509090231 40 314 0.0 0.0 0.00 0.00 0.00 83 1015.1
20260509085725 39 314 0.0 0.0 0.00 0.00 0.00 83 1015.0
20260509085206 39 314 0.0 0.0 0.00 0.00 0.00 82 1015.1
20260509084931 39 314 0.0 0.0 0.00 0.00 0.00 82 1015.1
20260509084424 39 314 0.0 0.0 0.00 0.00 0.00 82 1015.2
20260509083654 39 314 0.0 0.0 0.00 0.00 0.00 82 1015.3
20260509083149 40 314 0.0 0.0 0.00 0.00 0.00 82 1015.2
20260509082632 40 314 0.0 0.0 0.00 0.00 0.00 82 1015.4
20260509082126 40 314 0.0 0.0 0.00 0.00 0.00 81 1015.5
20260509081625 40 314 0.0 0.0 0.00 0.00 0.00 82 1015.4
20260509081121 40 314 0.0 0.0 0.00 0.00 0.00 82 1015.5
20260509080615 40 314 0.0 0.0 0.00 0.00 0.00 82 1015.6